Year,Month,Day,Hour,Minute,Value (Times are PST for temperature in C)
2011,04,29,00,02,5.30
2011,04,29,00,03,5.30
2011,04,29,00,04,5.30
2011,04,29,00,05,5.30
2011,04,29,00,06,5.30
2011,04,29,00,07,5.30
2011,04,29,00,08,5.30
2011,04,29,00,09,5.30
2011,04,29,00,10,5.30
2011,04,29,00,11,5.30
2011,04,29,00,12,5.30
2011,04,29,00,13,5.30
2011,04,29,00,14,5.30
2011,04,29,00,15,5.30
2011,04,29,00,16,5.30
2011,04,29,00,17,5.30
2011,04,29,00,18,5.30
2011,04,29,00,19,5.30
2011,04,29,00,20,5.20
2011,04,29,00,21,5.20
2011,04,29,00,22,5.20
2011,04,29,00,23,5.20
2011,04,29,00,24,5.20
2011,04,29,00,25,5.20
2011,04,29,00,26,5.20
2011,04,29,00,27,5.20
2011,04,29,00,28,5.20
2011,04,29,00,29,5.20
2011,04,29,00,30,5.20
2011,04,29,00,31,5.20
2011,04,29,00,32,5.20
2011,04,29,00,33,5.20
2011,04,29,00,34,5.20
2011,04,29,00,35,5.20
2011,04,29,00,36,5.20
2011,04,29,00,37,5.20
2011,04,29,00,38,5.20
2011,04,29,00,39,5.20
2011,04,29,00,40,5.20
2011,04,29,00,41,5.20
2011,04,29,00,42,5.20
2011,04,29,00,43,5.20
2011,04,29,00,44,5.20
2011,04,29,00,45,5.20
2011,04,29,00,46,5.20
2011,04,29,00,47,5.20
2011,04,29,00,48,5.20
2011,04,29,00,49,5.20
2011,04,29,00,50,5.20
2011,04,29,00,51,5.10
2011,04,29,00,52,5.10
2011,04,29,00,53,5.10
2011,04,29,00,54,5.10
2011,04,29,00,55,5.10
2011,04,29,00,56,5.10
2011,04,29,00,57,5.10
2011,04,29,00,58,5.10
2011,04,29,00,59,5.10
2011,04,29,01,00,5.10
2011,04,29,01,01,5.00
2011,04,29,01,02,5.00
2011,04,29,01,03,4.90
2011,04,29,01,04,5.00
2011,04,29,01,05,4.90
2011,04,29,01,06,4.90
2011,04,29,01,07,4.90
2011,04,29,01,08,4.90
2011,04,29,01,09,4.90
2011,04,29,01,10,4.90
2011,04,29,01,11,4.90
2011,04,29,01,12,4.90
2011,04,29,01,13,4.90
2011,04,29,01,14,4.90
2011,04,29,01,15,4.90
2011,04,29,01,16,4.90
2011,04,29,01,17,4.90
2011,04,29,01,18,4.90
2011,04,29,01,19,4.90
2011,04,29,01,20,4.90
2011,04,29,01,21,4.80
2011,04,29,01,22,4.80
2011,04,29,01,23,4.80
2011,04,29,01,24,4.80
2011,04,29,01,25,4.80
2011,04,29,01,26,4.80
2011,04,29,01,27,4.80
2011,04,29,01,28,4.80
2011,04,29,01,29,4.80
2011,04,29,01,30,4.80
2011,04,29,01,31,4.80
2011,04,29,01,32,4.80
2011,04,29,01,34,4.80
2011,04,29,01,35,4.80
2011,04,29,01,36,4.80
2011,04,29,01,37,4.80
2011,04,29,01,39,4.80
2011,04,29,01,40,4.80
2011,04,29,01,41,4.80
2011,04,29,01,43,4.80
2011,04,29,01,44,4.80
2011,04,29,01,45,4.70
2011,04,29,01,46,4.70
2011,04,29,01,48,4.70
2011,04,29,01,49,4.70
2011,04,29,01,50,4.70
2011,04,29,01,51,4.70
2011,04,29,01,52,4.70
2011,04,29,01,53,4.70
2011,04,29,01,54,4.70
2011,04,29,01,55,4.70
2011,04,29,01,56,4.70
2011,04,29,01,57,4.70
2011,04,29,01,58,4.70
2011,04,29,01,59,4.70
2011,04,29,02,00,4.70
2011,04,29,02,01,4.70
2011,04,29,02,02,4.70
2011,04,29,02,03,4.70
2011,04,29,02,04,4.70
2011,04,29,02,06,4.70
2011,04,29,02,07,4.70
2011,04,29,02,08,4.70
2011,04,29,02,09,4.70
2011,04,29,02,11,4.70
2011,04,29,02,12,4.70
2011,04,29,02,13,4.70
2011,04,29,02,14,4.70
2011,04,29,02,15,4.70
2011,04,29,02,17,4.70
2011,04,29,02,18,4.70
2011,04,29,02,19,4.70
2011,04,29,02,20,4.70
2011,04,29,02,21,4.70
2011,04,29,02,22,4.70
2011,04,29,02,23,4.70
2011,04,29,02,24,4.70
2011,04,29,02,25,4.80
2011,04,29,02,26,4.80
2011,04,29,02,28,4.80
2011,04,29,02,29,4.80
2011,04,29,02,30,4.80
2011,04,29,02,31,4.80
2011,04,29,02,33,4.80
2011,04,29,02,34,4.80
2011,04,29,02,35,4.80
2011,04,29,02,36,4.80
2011,04,29,02,38,4.80
2011,04,29,02,39,4.80
2011,04,29,02,40,4.80
2011,04,29,02,42,4.80
2011,04,29,02,43,4.90
2011,04,29,02,44,4.90
2011,04,29,02,46,4.90
2011,04,29,02,47,5.00
2011,04,29,02,48,5.00
2011,04,29,02,49,4.90
2011,04,29,02,50,5.00
2011,04,29,02,52,5.00
2011,04,29,02,53,5.00
2011,04,29,02,54,5.00
2011,04,29,02,56,5.00
2011,04,29,02,57,5.00
2011,04,29,02,58,5.10
2011,04,29,02,59,5.10
2011,04,29,03,01,5.10
2011,04,29,03,02,5.10
2011,04,29,03,03,5.10
2011,04,29,03,04,5.10
2011,04,29,03,05,5.10
2011,04,29,03,06,5.10
2011,04,29,03,07,5.10
2011,04,29,03,08,5.10
2011,04,29,03,10,5.10
2011,04,29,03,11,5.10
2011,04,29,03,12,5.10
2011,04,29,03,13,5.20
2011,04,29,03,15,5.20
2011,04,29,03,16,5.20
2011,04,29,03,17,5.20
2011,04,29,03,18,5.20
2011,04,29,03,20,5.20
2011,04,29,03,21,5.20
2011,04,29,03,22,5.20
2011,04,29,03,23,5.20
2011,04,29,03,25,5.20
2011,04,29,03,26,5.20
2011,04,29,03,27,5.20
2011,04,29,03,29,5.30
2011,04,29,03,30,5.30
2011,04,29,03,31,5.30
2011,04,29,03,32,5.30
2011,04,29,03,34,5.30
2011,04,29,03,35,5.30
2011,04,29,03,36,5.30
2011,04,29,03,37,5.30
2011,04,29,03,38,5.30
2011,04,29,03,39,5.30
2011,04,29,03,41,5.30
2011,04,29,03,42,5.30
2011,04,29,03,43,5.30
2011,04,29,03,44,5.30
2011,04,29,03,46,5.30
2011,04,29,03,47,5.30
2011,04,29,03,48,5.30
2011,04,29,03,49,5.30
2011,04,29,03,50,5.30
2011,04,29,03,51,5.30
2011,04,29,03,52,5.30
2011,04,29,03,53,5.30
2011,04,29,03,54,5.30
2011,04,29,03,56,5.30
2011,04,29,03,57,5.30
2011,04,29,03,58,5.20
2011,04,29,03,59,5.20
2011,04,29,04,00,5.20
2011,04,29,04,02,5.20
2011,04,29,04,03,5.20
2011,04,29,04,04,5.20
2011,04,29,04,06,5.20
2011,04,29,04,07,5.20
2011,04,29,04,08,5.20
2011,04,29,04,09,5.20
2011,04,29,04,10,5.20
2011,04,29,04,12,5.20
2011,04,29,04,13,5.20
2011,04,29,04,14,5.20
2011,04,29,04,15,5.20
2011,04,29,04,16,5.20
2011,04,29,04,17,5.20
2011,04,29,04,18,5.20
2011,04,29,04,19,5.20
2011,04,29,04,21,5.20
2011,04,29,04,22,5.20
2011,04,29,04,23,5.20
2011,04,29,04,24,5.20
2011,04,29,04,25,5.20
2011,04,29,04,26,5.20
2011,04,29,04,27,5.20
2011,04,29,04,28,5.20
2011,04,29,04,29,5.20
2011,04,29,04,31,5.20
2011,04,29,04,32,5.20
2011,04,29,04,33,5.20
2011,04,29,04,34,5.20
2011,04,29,04,35,5.20
2011,04,29,04,36,5.20
2011,04,29,04,37,5.20
2011,04,29,04,39,5.20
2011,04,29,04,40,5.20
2011,04,29,04,41,5.20
2011,04,29,04,43,5.20
2011,04,29,04,44,5.20
2011,04,29,04,45,5.20
2011,04,29,04,46,5.20
2011,04,29,04,48,5.20
2011,04,29,04,49,5.20
2011,04,29,04,50,5.20
2011,04,29,04,51,5.20
2011,04,29,04,53,5.20
2011,04,29,04,54,5.20
2011,04,29,04,55,5.20
2011,04,29,04,56,5.20
2011,04,29,04,58,5.20
2011,04,29,04,59,5.20
2011,04,29,05,00,5.10
2011,04,29,05,01,5.10
2011,04,29,05,02,5.10
2011,04,29,05,04,5.10
2011,04,29,05,05,5.10
2011,04,29,05,06,5.10
2011,04,29,05,08,5.10
2011,04,29,05,09,5.10
2011,04,29,05,10,5.10
2011,04,29,05,11,5.10
2011,04,29,05,13,5.10
2011,04,29,05,14,5.10
2011,04,29,05,15,5.10
2011,04,29,05,16,5.10
2011,04,29,05,17,5.10
2011,04,29,05,18,5.10
2011,04,29,05,19,5.10
2011,04,29,05,20,5.10
2011,04,29,05,21,5.10
2011,04,29,05,23,5.10
2011,04,29,05,24,5.10
2011,04,29,05,25,5.10
2011,04,29,05,27,5.10
2011,04,29,05,28,5.10
2011,04,29,05,29,5.10
2011,04,29,05,31,5.10
2011,04,29,05,32,5.10
2011,04,29,05,33,5.20
2011,04,29,05,35,5.20
2011,04,29,05,36,5.20
2011,04,29,05,37,5.20
2011,04,29,05,38,5.20
2011,04,29,05,40,5.20
2011,04,29,05,41,5.20
2011,04,29,05,42,5.20
2011,04,29,05,43,5.20
2011,04,29,05,45,5.20
2011,04,29,05,46,5.20
2011,04,29,05,47,5.20
2011,04,29,05,48,5.20
2011,04,29,05,49,5.20
2011,04,29,05,50,5.20
2011,04,29,05,51,5.20
2011,04,29,05,52,5.20
2011,04,29,05,53,5.20
2011,04,29,05,54,5.20
2011,04,29,05,56,5.20
2011,04,29,05,57,5.20
2011,04,29,05,58,5.20
2011,04,29,05,59,5.20
2011,04,29,06,00,5.20
2011,04,29,06,02,5.20
2011,04,29,06,03,5.20
2011,04,29,06,04,5.20
2011,04,29,06,05,5.20
2011,04,29,06,07,5.20
2011,04,29,06,08,5.20
2011,04,29,06,09,5.20
2011,04,29,06,10,5.20
2011,04,29,06,11,5.20
2011,04,29,06,12,5.20
2011,04,29,06,14,5.20
2011,04,29,06,15,5.20
2011,04,29,06,16,5.20
2011,04,29,06,17,5.20
2011,04,29,06,19,5.20
2011,04,29,06,20,5.20
2011,04,29,06,21,5.20
2011,04,29,06,22,5.20
2011,04,29,06,23,5.20
2011,04,29,06,25,5.20
2011,04,29,06,26,5.20
2011,04,29,06,27,5.20
2011,04,29,06,28,5.20
2011,04,29,06,29,5.20
2011,04,29,06,31,5.20
2011,04,29,06,32,5.20
2011,04,29,06,33,5.20
2011,04,29,06,34,5.20
2011,04,29,06,36,5.20
2011,04,29,06,37,5.20
2011,04,29,06,38,5.20
2011,04,29,06,39,5.20
2011,04,29,06,41,5.20
2011,04,29,06,42,5.20
2011,04,29,06,43,5.20
2011,04,29,06,44,5.10
2011,04,29,06,45,5.10
2011,04,29,06,46,5.10
2011,04,29,06,48,5.10
2011,04,29,06,49,5.10
2011,04,29,06,50,5.10
2011,04,29,06,51,5.10
2011,04,29,06,53,5.10
2011,04,29,06,54,5.10
2011,04,29,06,55,5.10
2011,04,29,06,56,5.10
2011,04,29,06,58,5.10
2011,04,29,06,59,5.10
2011,04,29,07,00,5.10
2011,04,29,07,01,5.10
2011,04,29,07,02,5.10
2011,04,29,07,03,5.10
2011,04,29,07,04,5.10
2011,04,29,07,06,5.20
2011,04,29,07,07,5.20
2011,04,29,07,08,5.20
2011,04,29,07,09,5.20
2011,04,29,07,10,5.20
2011,04,29,07,12,5.20
2011,04,29,07,13,5.30
2011,04,29,07,14,5.30
2011,04,29,07,15,5.30
2011,04,29,07,16,5.30
2011,04,29,07,18,5.30
2011,04,29,07,19,5.40
2011,04,29,07,20,5.40
2011,04,29,07,21,5.40
2011,04,29,07,23,5.40
2011,04,29,07,24,5.40
2011,04,29,07,25,5.40
2011,04,29,07,27,5.50
2011,04,29,07,28,5.50
2011,04,29,07,29,5.50
2011,04,29,07,30,5.60
2011,04,29,07,32,5.60
2011,04,29,07,33,5.60
2011,04,29,07,34,5.60
2011,04,29,07,35,5.60
2011,04,29,07,37,5.60
2011,04,29,07,38,5.70
2011,04,29,07,39,5.70
2011,04,29,07,40,5.70
2011,04,29,07,42,5.70
2011,04,29,07,43,5.70
2011,04,29,07,44,5.70
2011,04,29,07,46,5.70
2011,04,29,07,47,5.70
2011,04,29,07,48,5.70
2011,04,29,07,49,5.70
2011,04,29,07,50,5.70
2011,04,29,07,51,5.70
2011,04,29,07,53,5.70
2011,04,29,07,54,5.70
2011,04,29,07,55,5.70
2011,04,29,07,56,5.70
2011,04,29,07,58,5.80
2011,04,29,07,59,5.80
2011,04,29,08,00,5.80
2011,04,29,08,01,5.80
2011,04,29,08,02,5.80
2011,04,29,08,04,5.80
2011,04,29,08,05,5.80
2011,04,29,08,06,5.80
2011,04,29,08,07,5.90
2011,04,29,08,09,5.90
2011,04,29,08,10,6.00
2011,04,29,08,11,6.10
2011,04,29,08,12,6.10
2011,04,29,08,14,6.20
2011,04,29,08,15,6.20
2011,04,29,08,16,6.30
2011,04,29,08,17,6.30
2011,04,29,08,19,6.40
2011,04,29,08,20,6.50
2011,04,29,08,21,6.60
2011,04,29,08,22,6.70
2011,04,29,08,23,6.80
2011,04,29,08,25,6.80
2011,04,29,08,26,6.90
2011,04,29,08,27,7.00
2011,04,29,08,28,7.10
2011,04,29,08,30,7.10
2011,04,29,08,31,7.20
2011,04,29,08,32,7.20
2011,04,29,08,34,7.20
2011,04,29,08,35,7.20
2011,04,29,08,36,7.30
2011,04,29,08,37,7.30
2011,04,29,08,39,7.30
2011,04,29,08,40,7.40
2011,04,29,08,41,7.50
2011,04,29,08,43,7.60
2011,04,29,08,44,7.60
2011,04,29,08,45,7.70
2011,04,29,08,46,7.70
2011,04,29,08,47,7.70
2011,04,29,08,48,7.70
2011,04,29,08,49,7.70
2011,04,29,08,50,7.70
2011,04,29,08,51,7.80
2011,04,29,08,52,7.80
2011,04,29,08,54,7.90
2011,04,29,08,55,7.90
2011,04,29,08,56,7.90
2011,04,29,08,57,7.90
2011,04,29,08,59,7.90
2011,04,29,09,00,8.10
2011,04,29,09,01,8.10
2011,04,29,09,03,8.20
2011,04,29,09,04,8.30
2011,04,29,09,05,8.30
2011,04,29,09,06,8.30
2011,04,29,09,07,8.30
2011,04,29,09,09,8.30
2011,04,29,09,10,8.40
2011,04,29,09,11,8.40
2011,04,29,09,12,8.40
2011,04,29,09,13,8.40
2011,04,29,09,14,8.40
2011,04,29,09,15,8.40
2011,04,29,09,16,8.40
2011,04,29,09,17,8.50
2011,04,29,09,19,8.60
2011,04,29,09,20,8.70
2011,04,29,09,21,8.70
2011,04,29,09,22,8.70
2011,04,29,09,24,8.70
2011,04,29,09,25,8.70
2011,04,29,09,26,8.70
2011,04,29,09,27,8.70
2011,04,29,09,29,8.70
2011,04,29,09,30,8.60
2011,04,29,09,31,8.60
2011,04,29,09,32,8.60
2011,04,29,09,33,8.60
2011,04,29,09,34,8.60
2011,04,29,09,35,8.60
2011,04,29,09,36,8.50
2011,04,29,09,37,8.50
2011,04,29,09,38,8.50
2011,04,29,09,39,8.50
2011,04,29,09,40,8.60
2011,04,29,09,41,8.60
2011,04,29,09,42,8.60
2011,04,29,09,43,8.70
2011,04,29,09,44,8.70
2011,04,29,09,45,8.80
2011,04,29,09,46,8.80
2011,04,29,09,47,8.80
2011,04,29,09,48,8.80
2011,04,29,09,49,8.90
2011,04,29,09,50,9.00
2011,04,29,09,51,9.00
2011,04,29,09,52,9.00
2011,04,29,09,53,9.00
2011,04,29,09,54,9.00
2011,04,29,09,55,9.00
2011,04,29,09,56,9.10
2011,04,29,09,57,9.10
2011,04,29,09,58,9.20
2011,04,29,09,59,9.20
2011,04,29,10,00,9.30
2011,04,29,10,02,9.30
2011,04,29,10,03,9.30
2011,04,29,10,04,9.40
2011,04,29,10,05,9.40
2011,04,29,10,06,9.40
2011,04,29,10,07,9.60
2011,04,29,10,08,9.60
2011,04,29,10,09,9.60
2011,04,29,10,10,9.60
2011,04,29,10,11,9.60
2011,04,29,10,12,9.70
2011,04,29,10,13,9.70
2011,04,29,10,14,9.70
2011,04,29,10,15,9.70
2011,04,29,10,17,9.70
2011,04,29,10,18,9.70
2011,04,29,10,19,9.90
2011,04,29,10,20,9.90
2011,04,29,10,21,9.80
2011,04,29,10,22,9.80
2011,04,29,10,23,9.80
2011,04,29,10,24,9.80
2011,04,29,10,25,9.80
2011,04,29,10,26,9.80
2011,04,29,10,27,9.80
2011,04,29,10,28,9.80
2011,04,29,10,29,9.90
2011,04,29,10,30,10.10
2011,04,29,10,31,10.20
2011,04,29,10,33,10.30
2011,04,29,10,34,10.20
2011,04,29,10,35,10.20
2011,04,29,10,36,10.20
2011,04,29,10,38,10.10
2011,04,29,10,39,10.20
2011,04,29,10,40,10.20
2011,04,29,10,41,10.10
2011,04,29,10,43,10.10
2011,04,29,10,44,10.10
2011,04,29,10,45,10.30
2011,04,29,10,47,10.40
2011,04,29,10,48,10.40
2011,04,29,10,49,10.30
2011,04,29,10,50,10.20
2011,04,29,10,52,10.10
2011,04,29,10,53,10.20
2011,04,29,10,54,10.30
2011,04,29,10,56,10.30
2011,04,29,10,57,10.40
2011,04,29,10,58,10.30
2011,04,29,10,59,10.20
2011,04,29,11,01,10.10
2011,04,29,11,02,10.10
2011,04,29,11,03,10.10
2011,04,29,11,04,10.10
2011,04,29,11,06,10.20
2011,04,29,11,07,10.30
2011,04,29,11,08,10.20
2011,04,29,11,09,10.30
2011,04,29,11,11,10.40
2011,04,29,11,12,10.50
2011,04,29,11,13,10.40
2011,04,29,11,14,10.40
2011,04,29,11,15,10.50
2011,04,29,11,17,10.60
2011,04,29,11,18,10.80
2011,04,29,11,19,10.90
2011,04,29,11,20,10.90
2011,04,29,11,22,10.90
2011,04,29,11,23,10.80
2011,04,29,11,24,10.90
2011,04,29,11,25,10.80
2011,04,29,11,27,10.80
2011,04,29,11,28,10.80
2011,04,29,11,29,10.70
2011,04,29,11,30,10.70
2011,04,29,11,31,10.70
2011,04,29,11,32,10.70
2011,04,29,11,33,10.80
2011,04,29,11,34,10.80
2011,04,29,11,35,10.80
2011,04,29,11,37,10.90
2011,04,29,11,38,10.90
2011,04,29,11,39,10.90
2011,04,29,11,40,11.00
2011,04,29,11,42,11.10
2011,04,29,11,43,11.20
2011,04,29,11,44,11.30
2011,04,29,11,45,11.60
2011,04,29,11,47,11.70
2011,04,29,11,48,11.70
2011,04,29,11,49,11.50
2011,04,29,11,51,11.30
2011,04,29,11,52,11.20
2011,04,29,11,53,11.10
2011,04,29,11,54,11.10
2011,04,29,11,55,11.10
2011,04,29,11,57,11.10
2011,04,29,11,58,11.20
2011,04,29,11,59,11.30
2011,04,29,12,00,11.40
2011,04,29,12,02,11.60
2011,04,29,12,03,11.80
2011,04,29,12,04,11.80
2011,04,29,12,05,11.80
2011,04,29,12,07,11.90
2011,04,29,12,08,11.90
2011,04,29,12,09,11.80
2011,04,29,12,10,11.70
2011,04,29,12,12,11.60
2011,04,29,12,13,11.50
2011,04,29,12,14,11.50
2011,04,29,12,15,11.60
2011,04,29,12,17,11.70
2011,04,29,12,18,11.70
2011,04,29,12,19,11.80
2011,04,29,12,20,12.00
2011,04,29,12,22,12.10
2011,04,29,12,23,12.20
2011,04,29,12,24,12.30
2011,04,29,12,25,12.30
2011,04,29,12,27,12.30
2011,04,29,12,28,12.20
2011,04,29,12,29,12.10
2011,04,29,12,30,12.00
2011,04,29,12,31,12.00
2011,04,29,12,32,11.80
2011,04,29,12,33,11.70
2011,04,29,12,34,11.60
2011,04,29,12,36,11.50
2011,04,29,12,37,11.40
2011,04,29,12,38,11.40
2011,04,29,12,40,11.30
2011,04,29,12,41,11.30
2011,04,29,12,42,11.20
2011,04,29,12,43,11.20
2011,04,29,12,44,11.20
2011,04,29,12,45,11.20
2011,04,29,12,46,11.20
2011,04,29,12,47,11.20
2011,04,29,12,48,11.20
2011,04,29,12,50,11.20
2011,04,29,12,51,11.30
2011,04,29,12,52,11.30
2011,04,29,12,53,11.40
2011,04,29,12,55,11.50
2011,04,29,12,56,11.60
2011,04,29,12,57,11.70
2011,04,29,12,58,11.80
2011,04,29,12,59,11.80
2011,04,29,13,00,11.80
2011,04,29,13,02,11.80
2011,04,29,13,03,11.70
2011,04,29,13,04,11.60
2011,04,29,13,05,11.60
2011,04,29,13,07,11.40
2011,04,29,13,08,11.40
2011,04,29,13,09,11.30
2011,04,29,13,10,11.30
2011,04,29,13,12,11.30
2011,04,29,13,13,11.30
2011,04,29,13,14,11.40
2011,04,29,13,15,11.50
2011,04,29,13,16,11.40
2011,04,29,13,18,11.40
2011,04,29,13,19,11.30
2011,04,29,13,20,11.30
2011,04,29,13,21,11.30
2011,04,29,13,22,11.30
2011,04,29,13,24,11.20
2011,04,29,13,25,11.20
2011,04,29,13,26,11.20
2011,04,29,13,27,11.20
2011,04,29,13,29,11.10
2011,04,29,13,30,11.10
2011,04,29,13,31,11.10
2011,04,29,13,32,11.10
2011,04,29,13,33,11.10
2011,04,29,13,34,11.10
2011,04,29,13,35,11.10
2011,04,29,13,36,11.10
2011,04,29,13,37,11.20
2011,04,29,13,38,11.20
2011,04,29,13,39,11.30
2011,04,29,13,40,11.40
2011,04,29,13,41,11.40
2011,04,29,13,42,11.50
2011,04,29,13,43,11.60
2011,04,29,13,44,11.60
2011,04,29,13,45,11.60
2011,04,29,13,46,11.60
2011,04,29,13,47,11.70
2011,04,29,13,48,11.70
2011,04,29,13,49,11.90
2011,04,29,13,50,12.10
2011,04,29,13,51,12.30
2011,04,29,13,52,12.30
2011,04,29,13,54,12.30
2011,04,29,13,55,12.30
2011,04,29,13,56,12.30
2011,04,29,13,57,12.30
2011,04,29,13,58,12.30
2011,04,29,13,59,12.30
2011,04,29,14,00,12.40
2011,04,29,14,01,12.50
2011,04,29,14,02,12.60
2011,04,29,14,03,12.70
2011,04,29,14,04,12.80
2011,04,29,14,05,12.80
2011,04,29,14,06,12.80
2011,04,29,14,07,12.80
2011,04,29,14,08,12.80
2011,04,29,14,09,12.70
2011,04,29,14,11,12.80
2011,04,29,14,12,12.80
2011,04,29,14,13,12.90
2011,04,29,14,14,12.90
2011,04,29,14,15,12.90
2011,04,29,14,16,12.90
2011,04,29,14,17,12.90
2011,04,29,14,18,13.10
2011,04,29,14,20,13.20
2011,04,29,14,21,13.20
2011,04,29,14,22,13.20
2011,04,29,14,23,13.20
2011,04,29,14,25,13.20
2011,04,29,14,26,13.10
2011,04,29,14,27,13.10
2011,04,29,14,28,13.10
2011,04,29,14,29,13.10
2011,04,29,14,30,13.10
2011,04,29,14,31,13.10
2011,04,29,14,32,13.10
2011,04,29,14,33,13.10
2011,04,29,14,35,13.10
2011,04,29,14,36,13.10
2011,04,29,14,37,13.20
2011,04,29,14,39,13.20
2011,04,29,14,40,13.10
2011,04,29,14,41,12.90
2011,04,29,14,42,12.90
2011,04,29,14,44,12.90
2011,04,29,14,45,13.00
2011,04,29,14,46,13.10
2011,04,29,14,48,13.10
2011,04,29,14,49,13.00
2011,04,29,14,50,12.90
2011,04,29,14,51,12.80
2011,04,29,14,53,12.80
2011,04,29,14,54,12.80
2011,04,29,14,55,12.80
2011,04,29,14,56,12.80
2011,04,29,14,58,12.70
2011,04,29,14,59,12.70
2011,04,29,15,00,12.70
2011,04,29,15,01,12.80
2011,04,29,15,02,12.90
2011,04,29,15,04,13.10
2011,04,29,15,05,13.10
2011,04,29,15,06,13.20
2011,04,29,15,08,13.30
2011,04,29,15,09,13.40
2011,04,29,15,10,13.60
2011,04,29,15,11,13.70
2011,04,29,15,12,13.80
2011,04,29,15,14,13.70
2011,04,29,15,15,13.60
2011,04,29,15,16,13.50
2011,04,29,15,17,13.50
2011,04,29,15,19,13.40
2011,04,29,15,20,13.50
2011,04,29,15,21,13.70
2011,04,29,15,22,13.80
2011,04,29,15,24,13.80
2011,04,29,15,25,13.70
2011,04,29,15,26,13.60
2011,04,29,15,27,13.50
2011,04,29,15,29,13.40
2011,04,29,15,30,13.40
2011,04,29,15,31,13.40
2011,04,29,15,32,13.40
2011,04,29,15,33,13.40
2011,04,29,15,34,13.30
2011,04,29,15,35,13.30
2011,04,29,15,36,13.20
2011,04,29,15,37,13.30
2011,04,29,15,38,13.30
2011,04,29,15,39,13.30
2011,04,29,15,40,13.40
2011,04,29,15,41,13.30
2011,04,29,15,42,13.20
2011,04,29,15,43,13.20
2011,04,29,15,44,13.10
2011,04,29,15,45,13.10
2011,04,29,15,46,13.10
2011,04,29,15,47,13.20
2011,04,29,15,48,13.20
2011,04,29,15,49,13.10
2011,04,29,15,50,13.10
2011,04,29,15,51,13.10
2011,04,29,15,52,13.10
2011,04,29,15,53,13.10
2011,04,29,15,54,13.10
2011,04,29,15,55,13.10
2011,04,29,15,56,13.10
2011,04,29,15,57,13.00
2011,04,29,15,58,13.00
2011,04,29,15,59,13.00
2011,04,29,16,00,12.90
2011,04,29,16,01,12.80
2011,04,29,16,02,12.70
2011,04,29,16,03,12.70
2011,04,29,16,04,12.60
2011,04,29,16,05,12.60
2011,04,29,16,06,12.60
2011,04,29,16,07,12.60
2011,04,29,16,08,12.70
2011,04,29,16,09,12.70
2011,04,29,16,10,12.80
2011,04,29,16,11,12.80
2011,04,29,16,12,12.80
2011,04,29,16,13,12.80
2011,04,29,16,14,12.80
2011,04,29,16,15,12.70
2011,04,29,16,16,12.70
2011,04,29,16,17,12.60
2011,04,29,16,18,12.60
2011,04,29,16,19,12.50
2011,04,29,16,20,12.50
2011,04,29,16,21,12.50
2011,04,29,16,22,12.60
2011,04,29,16,23,12.50
2011,04,29,16,24,12.50
2011,04,29,16,25,12.50
2011,04,29,16,27,12.50
2011,04,29,16,28,12.40
2011,04,29,16,29,12.40
2011,04,29,16,30,12.40
2011,04,29,16,31,12.40
2011,04,29,16,32,12.40
2011,04,29,16,33,12.40
2011,04,29,16,34,12.40
2011,04,29,16,36,12.40
2011,04,29,16,37,12.40
2011,04,29,16,38,12.40
2011,04,29,16,39,12.50
2011,04,29,16,40,12.50
2011,04,29,16,42,12.50
2011,04,29,16,43,12.50
2011,04,29,16,44,12.60
2011,04,29,16,45,12.60
2011,04,29,16,46,12.60
2011,04,29,16,47,12.60
2011,04,29,16,48,12.60
2011,04,29,16,49,12.60
2011,04,29,16,51,12.60
2011,04,29,16,52,12.60
2011,04,29,16,53,12.60
2011,04,29,16,54,12.70
2011,04,29,16,56,12.80
2011,04,29,16,57,13.00
2011,04,29,16,58,13.10
2011,04,29,16,59,13.20
2011,04,29,17,01,13.20
2011,04,29,17,02,13.20
2011,04,29,17,03,13.10
2011,04,29,17,04,13.10
2011,04,29,17,06,12.90
2011,04,29,17,07,12.90
2011,04,29,17,08,12.90
2011,04,29,17,10,12.90
2011,04,29,17,11,12.90
2011,04,29,17,12,12.90
2011,04,29,17,13,12.80
2011,04,29,17,14,12.80
2011,04,29,17,16,12.80
2011,04,29,17,17,12.80
2011,04,29,17,18,12.80
2011,04,29,17,20,12.80
2011,04,29,17,21,12.70
2011,04,29,17,22,12.70
2011,04,29,17,24,12.70
2011,04,29,17,25,12.70
2011,04,29,17,26,12.70
2011,04,29,17,27,12.70
2011,04,29,17,28,12.70
2011,04,29,17,29,12.70
2011,04,29,17,30,12.70
2011,04,29,17,31,12.70
2011,04,29,17,32,12.70
2011,04,29,17,33,12.70
2011,04,29,17,34,12.70
2011,04,29,17,35,12.70
2011,04,29,17,36,12.70
2011,04,29,17,37,12.70
2011,04,29,17,38,12.70
2011,04,29,17,39,12.70
2011,04,29,17,40,12.70
2011,04,29,17,41,12.70
2011,04,29,17,42,12.70
2011,04,29,17,43,12.70
2011,04,29,17,44,12.70
2011,04,29,17,45,12.70
2011,04,29,17,46,12.80
2011,04,29,17,47,12.90
2011,04,29,17,48,12.90
2011,04,29,17,49,13.00
2011,04,29,17,50,13.10
2011,04,29,17,51,13.10
2011,04,29,17,52,13.10
2011,04,29,17,54,13.10
2011,04,29,17,55,12.90
2011,04,29,17,56,12.90
2011,04,29,17,57,12.90
2011,04,29,17,58,12.90
2011,04,29,17,59,12.90
2011,04,29,18,00,12.90
2011,04,29,18,01,12.90
2011,04,29,18,02,12.90
2011,04,29,18,03,12.90
2011,04,29,18,04,12.90
2011,04,29,18,05,12.90
2011,04,29,18,06,12.90
2011,04,29,18,07,12.90
2011,04,29,18,08,12.90
2011,04,29,18,09,12.90
2011,04,29,18,10,12.80
2011,04,29,18,11,12.80
2011,04,29,18,12,12.80
2011,04,29,18,13,12.80
2011,04,29,18,14,12.70
2011,04,29,18,15,12.70
2011,04,29,18,16,12.70
2011,04,29,18,18,12.80
2011,04,29,18,19,12.80
2011,04,29,18,20,12.80
2011,04,29,18,21,12.80
2011,04,29,18,22,12.80
2011,04,29,18,23,12.80
2011,04,29,18,24,12.80
2011,04,29,18,25,12.70
2011,04,29,18,26,12.70
2011,04,29,18,27,12.80
2011,04,29,18,28,12.80
2011,04,29,18,29,12.80
2011,04,29,18,30,12.80
2011,04,29,18,31,12.80
2011,04,29,18,32,12.70
2011,04,29,18,33,12.70
2011,04,29,18,35,12.60
2011,04,29,18,36,12.60
2011,04,29,18,37,12.60
2011,04,29,18,38,12.60
2011,04,29,18,40,12.50
2011,04,29,18,41,12.50
2011,04,29,18,42,12.50
2011,04,29,18,43,12.50
2011,04,29,18,45,12.40
2011,04,29,18,46,12.40
2011,04,29,18,47,12.40
2011,04,29,18,48,12.30
2011,04,29,18,49,12.30
2011,04,29,18,50,12.20
2011,04,29,18,52,12.10
2011,04,29,18,53,12.00
2011,04,29,18,54,12.00
2011,04,29,18,55,12.00
2011,04,29,18,57,11.90
2011,04,29,18,58,11.90
2011,04,29,18,59,11.80
2011,04,29,19,00,11.80
2011,04,29,19,02,11.70
2011,04,29,19,03,11.70
2011,04,29,19,04,11.50
2011,04,29,19,05,11.40
2011,04,29,19,07,11.30
2011,04,29,19,08,11.30
2011,04,29,19,09,11.20
2011,04,29,19,10,11.20
2011,04,29,19,12,11.20
2011,04,29,19,13,11.10
2011,04,29,19,14,11.10
2011,04,29,19,15,11.10
2011,04,29,19,17,11.10
2011,04,29,19,18,11.00
2011,04,29,19,19,10.90
2011,04,29,19,20,10.90
2011,04,29,19,22,10.90
2011,04,29,19,23,10.90
2011,04,29,19,24,10.90
2011,04,29,19,26,10.80
2011,04,29,19,27,10.80
2011,04,29,19,28,10.80
2011,04,29,19,29,10.80
2011,04,29,19,30,10.90
2011,04,29,19,31,10.90
2011,04,29,19,32,10.90
2011,04,29,19,33,11.00
2011,04,29,19,34,11.00
2011,04,29,19,35,11.10
2011,04,29,19,36,11.10
2011,04,29,19,37,11.10
2011,04,29,19,38,11.10
2011,04,29,19,39,11.00
2011,04,29,19,40,11.10
2011,04,29,19,42,11.00
2011,04,29,19,43,11.00
2011,04,29,19,44,11.00
2011,04,29,19,45,11.00
2011,04,29,19,47,10.90
2011,04,29,19,48,10.90
2011,04,29,19,49,10.80
2011,04,29,19,50,10.80
2011,04,29,19,51,10.80
2011,04,29,19,52,10.70
2011,04,29,19,53,10.70
2011,04,29,19,54,10.60
2011,04,29,19,56,10.60
2011,04,29,19,57,10.50
2011,04,29,19,58,10.40
2011,04,29,19,59,10.40
2011,04,29,20,00,10.40
2011,04,29,20,01,10.40
2011,04,29,20,02,10.30
2011,04,29,20,03,10.20
2011,04,29,20,04,10.20
2011,04,29,20,05,10.20
2011,04,29,20,06,10.10
2011,04,29,20,07,10.10
2011,04,29,20,08,10.10
2011,04,29,20,09,10.10
2011,04,29,20,10,10.10
2011,04,29,20,11,10.00
2011,04,29,20,12,10.00
2011,04,29,20,14,9.90
2011,04,29,20,15,9.90
2011,04,29,20,16,9.80
2011,04,29,20,17,9.80
2011,04,29,20,18,9.80
2011,04,29,20,19,9.80
2011,04,29,20,20,9.80
2011,04,29,20,21,9.70
2011,04,29,20,22,9.70
2011,04,29,20,23,9.70
2011,04,29,20,24,9.70
2011,04,29,20,25,9.70
2011,04,29,20,26,9.70